Location: *
(46.4000°N, 12.6667°E)
Time: 03:39:40
(UTC+00:00)

Envisat - Pass Details

Date: 04 December 2021
Orbit: 764 x 766 km, 98.2° (Epoch: 16 January)

Event Time Altitude Azimuth Distance (km) Brightness Sun altitude
Rises 05:30:39 0° 2° (N) 3,245 6.1 -10.8°
Reaches altitude 10° 05:33:21 10° 349° (N) 2,313 5.2 -10.4°
Maximum altitude 05:37:18 23° 298° (WNW) 1,580 4.0 -9.8°
Drops below altitude 10° 05:41:14 10° 247° (WSW) 2,301 5.1 -9.1°
Sets 05:43:55 0° 233° (SW) 3,222 5.9 -8.7°
